Fitchburg, MA

9:08 AM EDT on April 25, 2017 (GMT -0400)
Fitchburg Municipal

Weather History for KFIT - January, 2013

Change the Weather History Date:

Sunday, January 6, 2013

  Actual Average (KORH) Record (KORH)
Temperature  
Mean Temperature 29 °F -  
Max Temperature 39 °F 30 °F 66 °F (2007)
Min Temperature 19 °F 17 °F -12 °F (1896)
Degree Days  
Heating Degree Days 36    
Moisture  
Dew Point 23 °F    
Average Humidity 78    
Maximum Humidity 91    
Minimum Humidity 55    
Precipitation  
Precipitation 0.00 in - - ()
Sea Level Pressure  
Sea Level Pressure 30.04 in    
Wind  
Wind Speed 2 mph (WSW)    
Max Wind Speed 13 mph    
Max Gust Speed 18 mph    
Visibility 8 miles    
Events Snow    
Averages and records for this station are not official NWS values.
T = Trace of Precipitation, MM = Missing Value Source: NWS Daily Summary

Daily Weather History Graph

Daily Weather History Graph

Search for Another Location

Airport or City:

Trip Planner

Search our weather history database for the weather conditions in past years. The results will help you decide how hot, cold, wet, or windy it might be!

Date:

Astronomy

Jan. 06, 2013 Rise Set
Actual Time 7:16 AM EST 4:29 PM EST
Civil Twilight 6:45 AM EST 5:01 PM EST
Nautical Twilight 6:09 AM EST 5:36 PM EST
Astronomical Twilight 5:35 AM EST 6:10 PM EST
Moon 1:24 AM EST (1/6) 11:57 AM EST (1/6)
Length of Visible Light 10h 16m
Length of Day
9h 12m
Waning Crescent, 33% of the Moon is Illuminated
Jan 6
Waning Crescent
Jan 11
New
Jan 18
First Quarter
Jan 26
Full
Feb 3
Last Quarter

Hourly Weather History & Observations

Time (EST) Temp. Windchill Dew Point Humidity Pressure Visibility Wind Dir Wind Speed Gust Speed Precip Events Conditions
12:52 AM 19.0 °F - 15.1 °F 85% 30.19 in 10.0 mi Calm Calm - N/A   Clear
1:52 AM 21.0 °F - 16.0 °F 81% 30.22 in 10.0 mi Calm Calm - N/A   Clear
2:52 AM 21.9 °F - 16.0 °F 78% 30.19 in 10.0 mi Calm Calm - N/A   Overcast
3:52 AM 24.1 °F - 17.1 °F 75% 30.16 in 10.0 mi Calm Calm - N/A   Overcast
4:33 AM 24.8 °F 20.5 °F 19.4 °F 80% 30.11 in 1.8 mi SE 3.5 mph - 0.00 in Snow Light Snow
4:40 AM 24.8 °F - 21.2 °F 86% 30.11 in 2.5 mi Calm Calm - 0.00 in Snow Light Snow
4:48 AM 24.8 °F - 21.2 °F 86% 30.10 in 3.0 mi Calm Calm - 0.00 in Snow Light Snow
4:52 AM 25.0 °F 20.7 °F 21.0 °F 85% 30.12 in 4.0 mi South 3.5 mph - 0.00 in Snow Light Snow
5:52 AM 27.0 °F 21.6 °F 24.1 °F 89% 30.09 in 10.0 mi SE 4.6 mph - 0.00 in   Overcast
6:48 AM 24.8 °F - 21.2 °F 86% 30.07 in 8.0 mi Calm Calm - N/A   Overcast
6:52 AM 25.0 °F - 21.0 °F 85% 30.08 in 8.0 mi Calm Calm - N/A   Overcast
7:22 AM 24.8 °F - 21.2 °F 86% 30.06 in 8.0 mi Calm Calm - N/A   Mostly Cloudy
7:52 AM 24.1 °F - 21.9 °F 91% 30.07 in 8.0 mi Calm Calm - N/A   Mostly Cloudy
8:52 AM 28.9 °F - 23.0 °F 78% 30.06 in 10.0 mi Calm Calm - N/A   Partly Cloudy
9:52 AM 34.0 °F 28.0 °F 24.1 °F 67% 30.05 in 10.0 mi West 6.9 mph - N/A   Clear
10:52 AM 36.0 °F 28.5 °F 24.1 °F 62% 30.03 in 10.0 mi West 10.4 mph - N/A   Clear
11:52 AM 37.9 °F 33.5 °F 25.0 °F 60% 29.99 in 10.0 mi Variable 5.8 mph - N/A   Clear
12:52 PM 39.0 °F 31.4 °F 24.1 °F 55% 29.97 in 10.0 mi West 12.7 mph 18.4 mph N/A   Clear
1:52 PM 39.9 °F 34.5 °F 25.0 °F 55% 29.96 in 10.0 mi West 8.1 mph - N/A   Scattered Clouds
2:52 PM 39.0 °F 34.8 °F 26.1 °F 60% 29.96 in 10.0 mi WNW 5.8 mph - N/A   Overcast
3:52 PM 37.9 °F 35.5 °F 25.0 °F 60% 29.95 in 10.0 mi SW 3.5 mph - N/A   Clear
4:52 PM 33.1 °F - 24.1 °F 70% 29.96 in 10.0 mi Calm Calm - N/A   Clear
5:52 PM 30.0 °F - 25.0 °F 82% 29.96 in 10.0 mi Calm Calm - N/A   Overcast
6:52 PM 30.0 °F - 26.1 °F 85% 29.96 in 10.0 mi Calm Calm - N/A   Overcast
7:52 PM 30.9 °F - 26.1 °F 82% 29.98 in 9.0 mi Calm Calm - N/A   Overcast
8:52 PM 30.0 °F - 26.1 °F 85% 29.97 in 8.0 mi Calm Calm - N/A   Overcast
9:52 PM 30.0 °F - 26.1 °F 85% 29.97 in 8.0 mi Calm Calm - N/A   Overcast
10:52 PM 28.0 °F - 25.0 °F 88% 29.97 in 7.0 mi Calm Calm - N/A   Mostly Cloudy
11:52 PM 28.9 °F - 24.1 °F 82% 29.97 in 8.0 mi Calm Calm - N/A   Clear